Find Starlink 32538

NORAD ID: 62170 Int'l Des: 2024-225 Owner: SPXS Country: US Constellation: starlink operational
LEOCIRCULAR

リアルタイム位置

3D地球を読み込み中...

Starlink 32538について

説明を読み込み中...

次回通過

Passes for default location (London). Set your location on the main map for personalized predictions.

高度履歴

Loading altitude history...

軌道要素

1 62170U 24225H 26126.44956848 .00001472 00000-0 13112-3 0 9991
2 62170 70.0021 18.9534 0002821 269.1634 90.9201 14.98335019 78528
Epoch: May 6, 2026 • Age: 9 hours

現在のステータス

高度 591.8 km
速度 7.56 km/s
衛星直下点 -57.03°S, 177.53°E
打ち上げ日 Nov 30, 2024
運用期間 1.4 years
タイプ internet

技術仕様

分類 Payload
質量 730.00 kg
乾燥質量 700.00 kg
総質量 730.00 kg
長さ 0.30 m
直径 4.10 m
スパン 29.00 m
形状 Box + pan
製造者 SPXS
バスタイプ Starlink V2M
フェーズステータス In Orbit
所有者/国 SPXS/US

Most Searched